Weather in Polis

Cyprus     35°02′01″N   32°25′32″E
temp.,
°C
wind,
m/s
gust,
m/s
humid.,
%
clouds,
%
prec.,
mm/h
press.,
hPa
HPBL,
m
13 may, thu
thu1300:00+15sse11820 0.0 101133
03:00+14s11827 0.0 101035
06:00+14se116598 0.0 101120
09:00+22sw12380 0.0 1012575
12:00+25w32370 0.0 10121237
15:00+25wnw42420 0.0 10121015
18:00+22w32520 0.0 1013547
21:00+16nnw22850 0.0 101446
14 may, fri
fri1400:00+15nne11710 0.0 101428
03:00+15nw12700 0.0 101434
06:00+14ne11710 0.0 101430
09:00+23sw12310 0.0 1015530
12:00+25wsw44345 0.0 10151091
15:00+25wsw44340 0.0 1014932
18:00+23w32450 0.0 1014580
21:00+16nw12830 0.0 101443
15 may, sat
sat1500:00+15nnw12820 0.0 101439
03:00+14nw12770 0.0 101340
06:00+14wnw01800 0.0 101343
09:00+22wsw22490 0.0 1013464
12:00+25w55335 0.0 1013835
15:00+26w44274 0.0 1012753
18:00+22wnw4445100 0.0 1012541
21:00+16nw12640 0.0 101235
16 may, sun
sun1600:00+15sse01620 0.0 101128
03:00+15sse11555 0.0 100925
06:00+15sse3350100 0.0 100924
09:00+23sw2227100 0.0 1009521
12:00+24sw443353 0.0 1010951
15:00+25wsw3428100 0.0 1009895
18:00+23sw343257 0.0 1008635
21:00+17s236468 0.0 100949
17 may, mon
mon1700:00+15sw12821 0.0 100969
03:00+14nnw11900 0.0 100863
06:00+13sse01870 0.0 100844
09:00+20w21580 0.0 1010760
12:00+23wnw43450 0.0 10101174
15:00+24wnw43440 0.0 1010903
18:00+21nw44500 0.0 1010532
21:00+16nnw23850 0.0 101265